[[{"header":{"parameterUnit":"m.s-1","parameterCategory":1,"la1":30.2991,"la2":30.254,"lo1":-89.0895,"lo2":-89.0444,"dy":0.0017,"dx":0.0017,"nx":28,"ny":28,"refTime":"2023-10-27T21:00:00:Z","depth":0,"parameterNumber":2,"parameterNumberName":"U-component_of_WINDS"},"data":[0,0,0,0,0,0,0,0,0,0,0,0,0,0,0,0,0,0,0,0,0,0,0,0,0,0,0,0,0,0,0,0,0,0,0,0,0,0,0,0,0,0,0,0,0,0,0,0,0,0,0,0,0,0,0,0,0,0,-2.4679,-2.4678,0,-2.4656,-2.4655,-2.4655,-2.4564,-2.4562,-2.456,-2.4558,-2.4531,-2.4532,-2.4533,0,0,0,0,0,0,0,0,0,0,0,0,0,-2.4645,-2.4646,-2.4679,-2.4678,-2.4678,-2.4656,-2.4655,-2.4655,-2.4564,-2.4562,-2.4559,-2.4557,-2.453,-2.4532,-2.4533,0,0,0,0,0,0,0,0,0,0,0,0,0,-2.4645,-2.4647,-2.4679,-2.463,-2.4626,-2.4656,-2.4655,-2.4655,-2.4565,-2.4562,-2.4559,-2.4556,-2.453,-2.4532,-2.4534,-2.4608,0,0,-2.4539,-2.454,0,0,0,0,0,0,0,0,-2.4645,-2.4646,-2.4638,-2.4634,-2.4629,-2.461,-2.4633,-2.4639,-2.4566,-2.4588,-2.4558,-2.4554,-2.4559,-2.4559,-2.4561,-2.4606,-2.4605,-2.4539,-2.454,-2.4541,-2.4542,0,0,0,0,0,0,0,-2.4645,-2.4646,-2.4669,-2.4638,-2.4632,-2.461,-2.4606,-2.4634,-2.4591,-2.4586,-2.4579,-2.4578,-2.4556,-2.4559,-2.456,-2.4605,-2.4539,-2.4541,-2.4542,-2.4543,-2.4715,-2.4718,0,0,0,0,0,0,-2.4652,-2.4647,-2.467,-2.4669,-2.4629,-2.4613,-2.4609,-2.4619,-2.4591,-2.4584,-2.458,-2.4574,-2.4558,-2.4558,-2.4558,-2.4646,-2.4541,-2.4543,-2.4544,-2.4711,-2.4716,-2.4719,0,0,0,0,0,0,-2.4652,-2.4655,-2.4671,-2.4656,-2.4657,-2.4617,-2.4629,-2.462,-2.4623,-2.4587,-2.4579,-2.4591,-2.4555,-2.4556,-2.4597,-2.4644,-2.4544,-2.4546,-2.4707,-2.4713,-2.4717,-2.482,0,0,0,0,0,0,-2.4651,-2.4655,-2.4682,-2.4658,-2.4658,-2.471,-2.4631,-2.4622,-2.4627,-2.4618,-2.4595,-2.4588,-2.4553,-2.4595,-2.4599,-2.4644,-2.4547,-2.4703,-2.471,-2.4716,-2.4812,-2.4828,-2.4842,0,0,0,0,0,-2.465,-2.471,-2.4684,-2.4687,-2.4691,-2.4713,-2.4713,-2.4672,-2.4631,-2.4658,-2.4636,-2.4589,-2.4639,-2.46,-2.4604,-2.465,-2.47,-2.4708,-2.4715,-2.4806,-2.4825,-2.4841,0,0,0,0,0,0,-2.4738,-2.4706,-2.4676,-2.473,-2.4726,-2.4698,-2.473,-2.4693,-2.4699,-2.469,-2.4638,-2.4634,-2.4684,-2.4671,-2.4629,-2.4723,-2.4662,-2.467,-2.4729,-2.4747,-2.4761,-2.4763,-2.4548,0,0,0,0,0,-2.4765,-2.4786,-2.4756,-2.4807,-2.4806,-2.477,-2.4777,-2.4747,-2.4739,-2.4736,-2.4717,-2.4711,-2.4725,-2.4735,-2.4746,-2.4811,-2.4806,-2.4845,-2.486,-2.4872,-2.488,-2.4917,-2.4935,-2.4745,-2.4745,-2.4745,0,0,-2.4818,-2.4803,-2.4819,-2.4824,-2.4817,-2.4841,-2.4768,-2.4795,-2.4812,-2.474,-2.4779,-2.4765,-2.4755,-2.481,-2.4833,-2.4801,-2.4932,-2.4882,-2.4892,-2.4893,-2.4927,-2.4945,-2.4961,-2.475,-2.4749,-2.4748,0,0,-2.4927,-2.4917,-2.496,-2.4956,-2.4948,-2.4924,-2.4935,-2.4914,-2.4903,-2.4942,-2.4889,-2.491,-2.4935,-2.4931,-2.4933,-2.5049,-2.5007,-2.5054,-2.513,-2.5167,-2.5182,-2.5195,-2.5239,-2.5254,-2.5063,-2.5063,-2.5063,0,-2.4993,-2.5028,-2.4986,-2.5019,-2.5024,-2.4964,-2.5008,-2.5005,-2.5,-2.5006,-2.4971,-2.5005,-2.4994,-2.5048,-2.5078,-2.508,-2.5092,-2.5055,-2.5183,-2.5196,-2.5208,-2.5248,-2.5265,-2.5069,-2.5068,-2.5067,-2.5067,0,-2.5112,-2.5137,-2.5173,-2.5173,-2.5183,-2.5221,-2.5186,-2.5201,-2.5172,-2.5153,-2.5196,-2.5181,-2.519,-2.5201,-2.5171,-2.5254,-2.5235,-2.5193,-2.5129,-2.5232,-2.527,-2.5285,-2.5077,-2.5075,-2.5073,-2.5072,0,0,-2.527,-2.5253,-2.5267,-2.5268,-2.5257,-2.5276,-2.5314,-2.5325,-2.534,-2.534,-2.5371,-2.5397,-2.536,-2.5362,-2.5332,-2.5365,-2.5461,-2.5319,-2.5318,-2.5347,-2.5554,-2.5586,-2.5605,-2.5435,-2.5437,-2.5439,-2.5556,0,-2.5376,-2.5439,-2.5406,-2.5473,-2.5498,-2.5444,-2.5477,-2.5475,-2.546,-2.5479,-2.5461,-2.5482,-2.543,-2.5431,-2.5461,-2.5443,-2.5502,-2.5434,-2.5463,-2.5465,-2.5467,-2.5624,-2.5656,-2.5767,-2.557,-2.5572,-2.5574,0,-2.5505,-2.5516,-2.5587,-2.5577,-2.5586,-2.5616,-2.5627,-2.5645,-2.5643,-2.563,-2.5637,-2.5601,-2.5638,-2.5578,-2.563,-2.5585,-2.5595,-2.5589,-2.5592,-2.5592,-2.5525,-2.563,-2.58,-2.5818,-2.5597,-2.5595,-2.5593,0,-2.5617,-2.5648,-2.5695,-2.5698,-2.5687,-2.5711,-2.5707,-2.5702,-2.5713,-2.5723,-2.573,-2.5743,-2.575,-2.5762,-2.5732,-2.569,-2.5789,-2.5725,-2.578,-2.5781,-2.5801,-2.58,-2.5977,-2.5809,-2.5808,-2.5808,-2.5808,0,-2.5737,-2.5783,-2.5746,-2.5775,-2.5827,-2.579,-2.5842,-2.5832,-2.583,-2.5857,-2.5811,-2.5838,-2.5796,-2.5819,-2.5796,-2.5845,-2.5847,-2.5839,-2.5832,-2.5843,-2.5844,-2.5848,-2.584,-2.5812,-2.5811,-2.5811,-2.581,0,-2.5868,-2.5845,-2.5894,-2.5882,-2.5881,-2.5919,-2.5909,-2.5936,-2.592,-2.5956,-2.5962,-2.5937,-2.5962,-2.5934,-2.5956,-2.5941,-2.6007,-2.5989,-2.6008,-2.6003,-2.606,-2.6056,-2.6245,-2.6269,-2.6086,-2.6087,-2.6089,0,-2.5946,-2.5981,-2.5975,-2.5991,-2.5992,-2.6018,-2.603,-2.5998,-2.6012,-2.6017,-2.6045,-2.6067,-2.6083,-2.6127,-2.611,-2.6128,-2.611,-2.6176,-2.6112,-2.6124,-2.6113,-2.6112,-2.6116,-2.6188,-2.619,-2.6192,-2.6194,0,-2.6088,-2.6077,-2.6097,-2.6116,-2.6133,-2.6145,-2.6154,-2.617,-2.6136,-2.6156,-2.6183,-2.6196,-2.6222,-2.6246,-2.6261,-2.6257,-2.6221,-2.6215,-2.6229,-2.624,-2.625,-2.6247,-2.6044,-2.621,-2.6208,-2.6207,-2.6206,-2.6205,-2.6195,-2.6225,-2.6228,-2.6254,-2.6258,-2.6269,-2.6296,-2.6286,-2.6308,-2.6328,-2.6308,-2.6343,-2.6345,-2.6361,-2.6363,-2.639,-2.6362,-2.6381,-2.6386,-2.6392,-2.6401,-2.6247,-2.6392,-2.6392,-2.6391,-2.6391,-2.639,0,-2.6335,-2.6336,-2.6361,-2.6377,-2.6399,-2.6366,-2.6376,-2.6396,-2.6427,-2.6433,-2.6452,-2.6486,-2.6511,-2.6499,-2.652,-2.6545,-2.6529,-2.6551,-2.6549,-2.655,-2.6424,-2.641,-2.6564,-2.6564,-2.6564,-2.6564,-2.6564,-2.6564,-2.641,-2.6462,-2.6452,-2.6507,-2.6506,-2.6542,-2.6551,-2.6562,-2.6567,-2.6608,-2.6629,-2.6623,-2.6622,-2.6645,-2.6667,-2.6663,-2.6673,-2.6702,-2.6693,-2.6575,-2.6558,-2.6541,-2.6529,-2.6705,-2.6705,-2.6816,-2.6817,-2.6818]},{"header":{"parameterUnit":"m.s-1","parameterCategory":1,"la1":30.2991,"la2":30.254,"lo1":-89.0895,"lo2":-89.0444,"dy":0.0017,"dx":0.0017,"nx":28,"ny":28,"refTime":"2023-10-27T21:00:00:Z","depth":0,"parameterNumber":3,"parameterNumberName":"V-component_of_WINDS"},"data":[0,0,0,0,0,0,0,0,0,0,0,0,0,0,0,0,0,0,0,0,0,0,0,0,0,0,0,0,0,0,0,0,0,0,0,0,0,0,0,0,0,0,0,0,0,0,0,0,0,0,0,0,0,0,0,0,0,0,-0.4146,-0.4147,0,-0.42,-0.4201,-0.4201,-0.4246,-0.4246,-0.4247,-0.4247,-0.4301,-0.4302,-0.4303,0,0,0,0,0,0,0,0,0,0,0,0,0,-0.408,-0.4081,-0.4146,-0.4147,-0.4148,-0.42,-0.4201,-0.4202,-0.4246,-0.4246,-0.4247,-0.4247,-0.4301,-0.4302,-0.4303,0,0,0,0,0,0,0,0,0,0,0,0,0,-0.4118,-0.4081,-0.4146,-0.4176,-0.4179,-0.42,-0.4201,-0.4202,-0.4246,-0.4246,-0.4247,-0.4248,-0.4301,-0.4302,-0.4304,-0.4299,0,0,-0.4308,-0.4309,0,0,0,0,0,0,0,0,-0.4116,-0.4121,-0.4171,-0.4174,-0.4178,-0.4217,-0.4197,-0.4234,-0.4245,-0.422,-0.4247,-0.4248,-0.4273,-0.4277,-0.4285,-0.4301,-0.4304,-0.4308,-0.4309,-0.431,-0.431,0,0,0,0,0,0,0,-0.4113,-0.4119,-0.4168,-0.4172,-0.4176,-0.4186,-0.4192,-0.4204,-0.4242,-0.4223,-0.4226,-0.4232,-0.4275,-0.4283,-0.4287,-0.4304,-0.4308,-0.431,-0.4311,-0.4311,-0.4316,-0.4315,0,0,0,0,0,0,-0.4106,-0.4116,-0.4166,-0.4169,-0.4148,-0.4187,-0.4194,-0.4204,-0.4242,-0.4248,-0.4231,-0.4234,-0.4281,-0.4285,-0.4289,-0.4284,-0.431,-0.4311,-0.4312,-0.4317,-0.4316,-0.4315,0,0,0,0,0,0,-0.4105,-0.411,-0.4164,-0.4144,-0.4151,-0.4187,-0.4198,-0.4204,-0.4213,-0.4248,-0.4255,-0.4233,-0.4281,-0.4287,-0.4295,-0.4286,-0.4312,-0.4313,-0.4318,-0.4316,-0.4315,-0.4274,0,0,0,0,0,0,-0.4103,-0.411,-0.4109,-0.4143,-0.4152,-0.417,-0.4197,-0.4205,-0.4216,-0.422,-0.4252,-0.4258,-0.4282,-0.4293,-0.4297,-0.4289,-0.4315,-0.4319,-0.4317,-0.4316,-0.4277,-0.4272,-0.4268,0,0,0,0,0,-0.41,-0.4096,-0.4109,-0.4114,-0.4152,-0.417,-0.4175,-0.4203,-0.4215,-0.4214,-0.4236,-0.4257,-0.4286,-0.4293,-0.4298,-0.429,-0.4319,-0.4317,-0.4316,-0.4278,-0.4273,-0.4268,0,0,0,0,0,0,-0.406,-0.4101,-0.4116,-0.4122,-0.4142,-0.4177,-0.4177,-0.4196,-0.4212,-0.4215,-0.4249,-0.4256,-0.426,-0.4276,-0.4283,-0.4286,-0.4305,-0.4305,-0.4275,-0.427,-0.4266,-0.4262,-0.4316,0,0,0,0,0,-0.4052,-0.4063,-0.4098,-0.41,-0.4109,-0.4141,-0.415,-0.4169,-0.4191,-0.42,-0.4223,-0.4242,-0.4256,-0.4264,-0.4278,-0.4279,-0.4285,-0.4276,-0.4271,-0.4267,-0.4266,-0.4265,-0.4261,-0.4309,-0.4309,-0.4309,0,0,-0.4035,-0.4059,-0.4064,-0.4093,-0.411,-0.412,-0.4148,-0.4158,-0.4165,-0.4201,-0.421,-0.4227,-0.4251,-0.4255,-0.4258,-0.4269,-0.4254,-0.4265,-0.4262,-0.4263,-0.4263,-0.4258,-0.4254,-0.4308,-0.4308,-0.4308,0,0,-0.401,-0.4029,-0.4033,-0.4049,-0.4075,-0.4095,-0.4096,-0.4127,-0.414,-0.415,-0.4176,-0.4185,-0.4208,-0.4223,-0.4234,-0.4211,-0.423,-0.4214,-0.4191,-0.419,-0.4186,-0.4183,-0.4173,-0.4169,-0.4213,-0.4213,-0.4213,0,-0.3986,-0.4002,-0.4032,-0.4039,-0.405,-0.4082,-0.4085,-0.4099,-0.4128,-0.4134,-0.4146,-0.4174,-0.4192,-0.4199,-0.4193,-0.4201,-0.4201,-0.4211,-0.4184,-0.4181,-0.4179,-0.4169,-0.4166,-0.4211,-0.4211,-0.4211,-0.4211,0,-0.3971,-0.3981,-0.3981,-0.4007,-0.4018,-0.4023,-0.4051,-0.4059,-0.4076,-0.4095,-0.4103,-0.4126,-0.4145,-0.4148,-0.4166,-0.4156,-0.4162,-0.4178,-0.4198,-0.4171,-0.4163,-0.416,-0.4208,-0.4208,-0.4209,-0.421,0,0,-0.3923,-0.3964,-0.3963,-0.3974,-0.4003,-0.4012,-0.4017,-0.4035,-0.4039,-0.4058,-0.4062,-0.4079,-0.4094,-0.4106,-0.4125,-0.4124,-0.4102,-0.4141,-0.4142,-0.4131,-0.409,-0.4077,-0.4072,-0.4115,-0.4114,-0.4114,-0.4087,0,-0.3902,-0.3914,-0.3939,-0.3942,-0.3951,-0.398,-0.3984,-0.4002,-0.4019,-0.4028,-0.4047,-0.4058,-0.4077,-0.4084,-0.4085,-0.4104,-0.4094,-0.4107,-0.4118,-0.4118,-0.411,-0.4068,-0.4055,-0.4029,-0.4085,-0.4084,-0.4084,0,-0.3879,-0.3894,-0.3898,-0.3924,-0.3929,-0.3932,-0.3949,-0.3958,-0.3978,-0.399,-0.4002,-0.4023,-0.4028,-0.4047,-0.4053,-0.4062,-0.4067,-0.4077,-0.4077,-0.4079,-0.4099,-0.4068,-0.4022,-0.4018,-0.4079,-0.408,-0.408,0,-0.3842,-0.3864,-0.3868,-0.3877,-0.3908,-0.3909,-0.3922,-0.3943,-0.3951,-0.3965,-0.397,-0.3985,-0.3993,-0.4003,-0.4027,-0.4038,-0.403,-0.4051,-0.4039,-0.4038,-0.4036,-0.4036,-0.399,-0.4041,-0.4041,-0.4041,-0.4041,0,-0.3815,-0.3816,-0.3851,-0.3854,-0.3855,-0.3883,-0.3883,-0.3898,-0.3916,-0.3921,-0.3947,-0.3951,-0.3983,-0.399,-0.4008,-0.401,-0.4014,-0.4023,-0.4027,-0.402,-0.4018,-0.4024,-0.4026,-0.404,-0.4041,-0.4041,-0.4041,0,-0.3774,-0.3798,-0.3805,-0.3833,-0.384,-0.3839,-0.3863,-0.3865,-0.3883,-0.3889,-0.3892,-0.392,-0.3929,-0.3954,-0.397,-0.3982,-0.3978,-0.3988,-0.3971,-0.3974,-0.396,-0.3961,-0.3915,-0.391,-0.3965,-0.3965,-0.3964,0,-0.3756,-0.3757,-0.3784,-0.3789,-0.3801,-0.3809,-0.3817,-0.3843,-0.385,-0.3871,-0.3871,-0.3882,-0.3893,-0.3906,-0.3927,-0.3939,-0.3948,-0.3931,-0.395,-0.3942,-0.3946,-0.3946,-0.3945,-0.3927,-0.3926,-0.3926,-0.3925,0,-0.3719,-0.373,-0.374,-0.3754,-0.3762,-0.3774,-0.3788,-0.379,-0.382,-0.3826,-0.3835,-0.3843,-0.3859,-0.3869,-0.3884,-0.3896,-0.3915,-0.3919,-0.3917,-0.3909,-0.3899,-0.3902,-0.3959,-0.392,-0.3921,-0.3921,-0.3921,-0.3922,-0.3688,-0.3689,-0.3708,-0.3717,-0.373,-0.3741,-0.3744,-0.3761,-0.377,-0.3784,-0.3799,-0.3807,-0.3824,-0.3845,-0.3856,-0.3861,-0.3871,-0.3868,-0.3867,-0.3866,-0.3862,-0.3898,-0.3864,-0.3864,-0.3864,-0.3865,-0.3865,0,-0.3651,-0.3664,-0.3672,-0.369,-0.3697,-0.3713,-0.3728,-0.3733,-0.3739,-0.3753,-0.3762,-0.3772,-0.3781,-0.3802,-0.3813,-0.3813,-0.3822,-0.3815,-0.3815,-0.3817,-0.3853,-0.3853,-0.3808,-0.3808,-0.3808,-0.3808,-0.3808,-0.3808,-0.3633,-0.3635,-0.3648,-0.3655,-0.3668,-0.3675,-0.3682,-0.3692,-0.3703,-0.3712,-0.372,-0.3733,-0.3749,-0.3761,-0.377,-0.3776,-0.3778,-0.3768,-0.3776,-0.3809,-0.3815,-0.382,-0.382,-0.3768,-0.3768,-0.374,-0.3739,-0.3739]}]]